Weather History for KVER - January, 2013

Change the Weather History Date:

Monday, January 14, 2013

  Actual Average Record
Temperature  
Mean Temperature 20 °F -  
Max Temperature 28 °F 35 °F 63 °F (1952)
Min Temperature 11 °F 16 °F -9 °F (1979)
Degree Days  
Heating Degree Days 46    
Moisture  
Dew Point 9 °F    
Average Humidity 68    
Maximum Humidity 94    
Minimum Humidity 39    
Precipitation  
Precipitation 0.00 in - - ()
Sea Level Pressure  
Sea Level Pressure 30.43 in    
Wind  
Wind Speed 1 mph (North)    
Max Wind Speed 6 mph    
Max Gust Speed -    
Visibility 10 miles    
Events      
Averages and records for this station are not official NWS values.
T = Trace of Precipitation, MM = Missing Value Source: NWS Daily Summary

Daily Weather History Graph

Daily Weather History Graph

Search for Another Location

Airport or City:

Trip Planner

Search our weather history database for the weather conditions in past years. The results will help you decide how hot, cold, wet, or windy it might be!

Date:

Astronomy

Jan. 14, 2013 Rise Set
Actual Time 7:28 AM CST 5:12 PM CST
Civil Twilight 6:58 AM CST 5:41 PM CST
Nautical Twilight 6:26 AM CST 6:14 PM CST
Astronomical Twilight 5:54 AM CST 6:46 PM CST
Moon 9:04 AM CST (1/14) 8:55 PM CST (1/14)
Length of Visible Light 10h 42m
Length of Day
9h 43m
Waxing Crescent, 11% of the Moon is Illuminated
Jan 14
Waxing Crescent
Jan 18
First Quarter
Jan 26
Full
Feb 3
Last Quarter
Feb 10
New

Hourly Weather History & Observations

Time (CST) Temp. Windchill Dew Point Humidity Pressure Visibility Wind Dir Wind Speed Gust Speed Precip Events Conditions
12:15 AM 15.8 °F - 10.6 °F 80% 30.37 in 10.0 mi Calm Calm - N/A   Clear
12:35 AM 14.7 °F - 10.4 °F 83% 30.38 in 10.0 mi Calm Calm - N/A   Clear
12:55 AM 13.8 °F - 9.9 °F 84% 30.38 in 10.0 mi Calm Calm - N/A   Clear
1:15 AM 13.6 °F - 9.9 °F 85% 30.40 in 10.0 mi Calm Calm - N/A   Clear
1:35 AM 14.0 °F - 10.4 °F 86% 30.41 in 10.0 mi Calm Calm - N/A   Clear
1:55 AM 14.0 °F - 10.4 °F 86% 30.42 in 10.0 mi Calm Calm - N/A   Clear
2:15 AM 14.4 °F - 10.2 °F 84% 30.43 in 10.0 mi Calm Calm - N/A   Clear
2:35 AM 14.4 °F - 10.2 °F 84% 30.44 in 10.0 mi Calm Calm - N/A   Clear
2:55 AM 13.5 °F - 9.3 °F 84% 30.44 in 10.0 mi Calm Calm - N/A   Clear
3:35 AM 12.0 °F - 9.1 °F 88% 30.44 in 10.0 mi Calm Calm - N/A   Clear
4:15 AM 11.7 °F - 9.3 °F 90% 30.43 in 10.0 mi Calm Calm - N/A   Clear
4:35 AM 12.6 °F - 10.6 °F 92% 30.43 in 10.0 mi Calm Calm - N/A   Clear
4:55 AM 13.1 °F - 11.3 °F 93% 30.42 in 10.0 mi Calm Calm - N/A   Clear
5:15 AM 12.9 °F - 11.3 °F 93% 30.41 in 10.0 mi Calm Calm - N/A   Clear
5:55 AM 11.1 °F 4.9 °F 9.5 °F 93% 30.42 in 10.0 mi NW 3.5 mph - N/A   Clear
6:15 AM 11.8 °F 3.9 °F 10.4 °F 94% 30.42 in 10.0 mi NNW 4.6 mph - N/A   Clear
6:35 AM 11.8 °F 5.7 °F 10.0 °F 92% 30.41 in 10.0 mi NNW 3.5 mph - N/A   Clear
6:55 AM 11.5 °F - 9.0 °F 90% 30.42 in 10.0 mi Calm Calm - N/A   Clear
7:15 AM 11.5 °F - 8.6 °F 88% 30.43 in 10.0 mi Calm Calm - N/A   Clear
7:35 AM 11.7 °F - 8.4 °F 87% 30.44 in 10.0 mi Calm Calm - N/A   Clear
7:55 AM 11.8 °F - 8.1 °F 85% 30.44 in 10.0 mi Calm Calm - N/A   Clear
8:15 AM 12.4 °F - 8.8 °F 85% 30.44 in 10.0 mi Calm Calm - N/A   Clear
8:35 AM 13.6 °F - 9.3 °F 83% 30.48 in 10.0 mi Calm Calm - N/A   Clear
8:55 AM 14.5 °F - 9.9 °F 82% 30.50 in 10.0 mi Calm Calm - N/A   Clear
9:15 AM 15.4 °F 9.8 °F 10.2 °F 80% 30.50 in 10.0 mi NW 3.5 mph - N/A   Clear
9:35 AM 16.3 °F 10.8 °F 10.9 °F 79% 30.49 in 10.0 mi NNW 3.5 mph - N/A   Clear
9:55 AM 17.1 °F 10.0 °F 10.9 °F 77% 30.50 in 10.0 mi NNW 4.6 mph - N/A   Clear
10:15 AM 17.6 °F 10.7 °F 10.9 °F 75% 30.48 in 10.0 mi North 4.6 mph - N/A   Clear
10:35 AM 19.8 °F 14.7 °F 11.7 °F 71% 30.48 in 10.0 mi North 3.5 mph - N/A   Clear
10:55 AM 21.7 °F 17.0 °F 11.3 °F 64% 30.49 in 10.0 mi North 3.5 mph - N/A   Clear
11:15 AM 22.6 °F 18.0 °F 11.1 °F 61% 30.48 in 10.0 mi NNE 3.5 mph - N/A   Clear
11:35 AM 23.2 °F 18.7 °F 9.5 °F 56% 30.48 in 10.0 mi NNW 3.5 mph - N/A   Clear
11:55 AM 23.7 °F - 9.0 °F 53% 30.47 in 10.0 mi Calm Calm - N/A   Clear
12:15 PM 24.4 °F 20.1 °F 8.8 °F 51% 30.46 in 10.0 mi North 3.5 mph - N/A   Clear
12:35 PM 25.0 °F - 9.0 °F 51% 30.46 in 10.0 mi Calm Calm - N/A   Clear
1:15 PM 26.1 °F - 7.3 °F 45% 30.43 in 10.0 mi Calm Calm - N/A   Clear
1:35 PM 25.5 °F - 7.0 °F 45% 30.43 in 10.0 mi Calm Calm - N/A   Clear
1:55 PM 27.0 °F - 7.5 °F 44% 30.42 in 10.0 mi Calm Calm - N/A   Clear
2:15 PM 27.3 °F - 6.8 °F 42% 30.42 in 10.0 mi Calm Calm - N/A   Clear
2:35 PM 27.9 °F - 5.9 °F 39% 30.42 in 10.0 mi Calm Calm - N/A   Clear
2:55 PM 27.9 °F 24.0 °F 7.0 °F 41% 30.42 in 10.0 mi NNW 3.5 mph - N/A   Clear
3:15 PM 28.4 °F - 7.0 °F 40% 30.42 in 10.0 mi Calm Calm - N/A   Clear
3:35 PM 28.4 °F 24.6 °F 7.5 °F 41% 30.42 in 10.0 mi North 3.5 mph - N/A   Clear
3:55 PM 28.2 °F - 7.9 °F 42% 30.41 in 10.0 mi Calm Calm - N/A   Clear
4:15 PM 28.2 °F - 8.1 °F 43% 30.41 in 10.0 mi Calm Calm - N/A   Clear
4:35 PM 28.6 °F - 8.8 °F 43% 30.41 in 10.0 mi Calm Calm - N/A   Clear
4:55 PM 28.4 °F - 9.1 °F 44% 30.41 in 10.0 mi Calm Calm - N/A   Clear
5:15 PM 27.7 °F - 10.0 °F 48% 30.41 in 10.0 mi Calm Calm - N/A   Clear
5:35 PM 26.1 °F - 9.9 °F 50% 30.42 in 10.0 mi Calm Calm - N/A   Clear
5:55 PM 25.3 °F 21.1 °F 8.6 °F 49% 30.41 in 10.0 mi ENE 3.5 mph - N/A   Clear
6:15 PM 24.8 °F 19.1 °F 7.5 °F 48% 30.41 in 10.0 mi ENE 4.6 mph - N/A   Clear
6:35 PM 23.7 °F 16.6 °F 7.7 °F 51% 30.41 in 10.0 mi ENE 5.8 mph - N/A   Clear
6:55 PM 23.4 °F 18.9 °F 7.5 °F 51% 30.41 in 10.0 mi ENE 3.5 mph - N/A   Clear
7:15 PM 22.8 °F 18.2 °F 7.7 °F 52% 30.41 in 10.0 mi NE 3.5 mph - N/A   Clear
7:35 PM 22.1 °F 17.4 °F 8.1 °F 55% 30.41 in 10.0 mi ENE 3.5 mph - N/A   Clear
7:55 PM 21.9 °F 15.7 °F 7.7 °F 54% 30.41 in 10.0 mi NE 4.6 mph - N/A   Clear
8:15 PM 21.2 °F 16.4 °F 8.2 °F 57% 30.41 in 10.0 mi NE 3.5 mph - N/A   Clear
8:35 PM 20.7 °F - 8.6 °F 60% 30.41 in 10.0 mi Calm Calm - N/A   Clear
8:55 PM 19.6 °F - 9.0 °F 63% 30.41 in 10.0 mi Calm Calm - N/A   Clear
9:15 PM 18.7 °F - 9.1 °F 66% 30.41 in 10.0 mi Calm Calm - N/A   Clear
9:35 PM 18.5 °F - 9.3 °F 67% 30.42 in 10.0 mi Calm Calm - N/A   Clear
9:55 PM 18.9 °F - 9.7 °F 67% 30.41 in 10.0 mi Calm Calm - N/A   Clear
10:15 PM 17.8 °F - 9.9 °F 71% 30.41 in 10.0 mi Calm Calm - N/A   Clear
10:35 PM 17.6 °F - 10.6 °F 74% 30.41 in 10.0 mi Calm Calm - N/A   Clear
10:55 PM 16.9 °F - 10.6 °F 76% 30.41 in 10.0 mi Calm Calm - N/A   Clear
11:15 PM 16.7 °F - 11.1 °F 79% 30.41 in 10.0 mi Calm Calm - N/A   Clear
11:35 PM 16.7 °F - 12.4 °F 83% 30.41 in 10.0 mi Calm Calm - N/A   Clear
11:55 PM 16.5 °F - 12.0 °F 82% 30.41 in 10.0 mi Calm Calm - N/A   Clear